Regional Weather Roundup
Issued by NWS

Home | Current Version | Previous Version | Text Only | Print | Product List | Glossary Off
Versions: 1 2 3 4 5 6 7 8 9 10 11 12 13 14 15 16 17 18 19 20 21 22 23 24 25 26 27 28 29 30 31 32 33 34 35 36 37 38 39 40 41 42 43 44 45 46 47 48 49 50

705
ASUS43 KLSX 291907
RWRMO

WEATHER SUMMARY FOR MISSOURI
NATIONAL WEATHER SERVICE SPRINGFIELD MO
200 PM CDT FRI JUL 29 2016

NOTE: "FAIR" INDICATES FEW OR NO CLOUDS BELOW 12,000 FEET WITH NO
       SIGNIFICANT WEATHER AND/OR OBSTRUCTIONS TO VISIBILITY.
       CURRENT SKY AND/OR WEATHER CONDITIONS ARE NOT AVAILABLE FOR
       CHILLICOTHE AND FARMINGTON.

MOZ001>031-035>038-043-044-053-054-292000-
...NORTHERN AND WESTERN MISSOURI...

CITY           SKY/WX    TMP DP  RH WIND       PRES   REMARKS
KANSAS CTY INT MOSUNNY   81  61  50 CALM      30.00F
KANSAS C DTWN  PTSUNNY   85  65  51 N8        29.98F
LEE`S SUMMIT   PTSUNNY   83  66  56 N6        30.00F
ST JOSEPH      MOSUNNY   82  65  56 N9        30.01F
CHILLICOTHE      N/A     83  64  52 VRB3      29.99F
KIRKSVILLE     CLOUDY    80  64  58 NW8       29.99F

$$
MOZ066>068-077>081-088>096-101>105-292000-
...SOUTHWEST MISSOURI...

CITY           SKY/WX    TMP DP  RH WIND       PRES   REMARKS
SPRINGFIELD    CLOUDY    82  70  66 W7        29.98S
JOPLIN         MOSUNNY   86  70  58 N6        29.99F HX  90
BRANSON        LGT RAIN  72  68  88 W12G21    30.01F

$$
MOZ032>034-039>042-045>050-055>058-069>072-292000-
...CENTRAL MISSOURI...

CITY           SKY/WX    TMP DP  RH WIND       PRES   REMARKS
COLUMBIA       MOSUNNY   82  69  64 N10       29.96F
JEFFERSON CITY PTSUNNY   82  71  69 NW8       29.94F
ROLLA          PTSUNNY   80  71  74 N7        29.95F
SEDALIA        PTSUNNY   82  70  66 N10       29.98F
WHITEMAN AFB   PTSUNNY   82  69  65 NW8       29.96F
OSAGE BEACH    PTSUNNY   83  72  69 VRB5      29.96F

$$
MOZ051-052-059>065-292000-
...EAST CENTRAL MISSOURI...

CITY           SKY/WX    TMP DP  RH WIND       PRES   REMARKS
ST LOUIS INTL  CLOUDY    85  66  53 NW7       29.95F
SPIRIT OF STL  MOSUNNY   85  68  56 NW7       29.93F
ST CHARLES     PTSUNNY   83  69  62 W8        29.93F

$$
MOZ072>076-082>087-097>100-106>115-292000-
...SOUTH CENTRAL AND SOUTHEAST MISSOURI...

CITY           SKY/WX    TMP DP  RH WIND       PRES   REMARKS
CAPE GIRARDEAU MOSUNNY   83  75  77 NW3       29.92F HX  90
FARMINGTON     MOSUNNY   84  72  67 NW8       29.95F HAZE
POPLAR BLUFF   MOSUNNY   86  75  69 S3        29.91F HX  95
WEST PLAINS    MOSUNNY   85  69  58 W5        29.97F

$$



USA.gov is the U.S. government's official web portal to all federal, state and local government web resources and services.